TimeCST,TemperatureF,Dew PointF,Humidity,Sea Level PressureIn,VisibilityMPH,Wind Direction,Wind SpeedMPH,Gust SpeedMPH,PrecipitationIn,Events,Conditions,WindDirDegrees,DateUTC
12:53 AM,30.0,26.1,85,29.75,10.0,SW,9.2,-,N/A,,Partly Cloudy,220,2013-01-19 06:53:00
1:53 AM,27.0,24.1,89,29.76,10.0,SW,8.1,-,N/A,,Clear,220,2013-01-19 07:53:00
2:53 AM,27.0,24.1,89,29.77,10.0,SSW,6.9,-,N/A,,Clear,200,2013-01-19 08:53:00
3:53 AM,28.0,24.1,85,29.78,10.0,WSW,4.6,-,N/A,,Mostly Cloudy,240,2013-01-19 09:53:00
4:53 AM,28.9,25.0,85,29.80,10.0,SW,4.6,-,N/A,,Mostly Cloudy,230,2013-01-19 10:53:00
5:53 AM,35.6,28.4,75,29.78,10.0,WNW,16.1,-,N/A,,Clear,300,2013-01-19 11:53:00
6:53 AM,37.0,28.0,70,29.85,10.0,WNW,19.6,25.3,N/A,,Clear,300,2013-01-19 12:53:00
7:53 AM,35.1,27.0,72,29.88,10.0,WNW,19.6,-,N/A,,Partly Cloudy,290,2013-01-19 13:53:00
8:53 AM,34.0,27.0,75,29.90,10.0,WNW,12.7,-,N/A,,Clear,300,2013-01-19 14:53:00
9:53 AM,35.1,28.0,76,29.94,10.0,West,13.8,-,N/A,,Partly Cloudy,280,2013-01-19 15:53:00
10:53 AM,36.0,28.9,76,29.99,10.0,NW,20.7,26.5,N/A,,Overcast,310,2013-01-19 16:53:00
11:07 AM,35.6,26.6,70,29.96,10.0,NW,31.1,43.7,N/A,,Overcast,310,2013-01-19 17:07:00
11:53 AM,30.0,18.0,61,30.05,10.0,NW,31.1,40.3,N/A,,Overcast,320,2013-01-19 17:53:00
12:53 PM,24.1,14.0,65,30.12,10.0,NNW,33.4,41.4,N/A,,Partly Cloudy,330,2013-01-19 18:53:00
1:53 PM,17.1,7.0,65,30.17,10.0,NNW,40.3,47.2,N/A,,Mostly Cloudy,330,2013-01-19 19:53:00
2:53 PM,16.0,3.9,59,30.22,10.0,NNW,29.9,43.7,N/A,,Partly Cloudy,330,2013-01-19 20:53:00
3:09 PM,15.8,3.2,58,30.17,10.0,NNW,28.8,41.4,N/A,,Mostly Cloudy,330,2013-01-19 21:09:00
3:32 PM,12.2,1.4,62,30.21,10.0,NNW,32.2,40.3,N/A,,Scattered Clouds,330,2013-01-19 21:32:00
3:53 PM,12.0,1.0,61,30.31,10.0,NW,27.6,38.0,N/A,,Scattered Clouds,320,2013-01-19 21:53:00
4:53 PM,10.0,-2.0,58,30.35,10.0,NNW,27.6,40.3,N/A,,Scattered Clouds,330,2013-01-19 22:53:00
5:53 PM,7.0,-4.0,61,30.38,10.0,NNW,18.4,27.6,N/A,,Clear,340,2013-01-19 23:53:00
6:53 PM,5.0,-5.1,63,30.40,10.0,NNW,15.0,-,N/A,,Clear,340,2013-01-20 00:53:00
7:53 PM,3.9,-6.0,64,30.44,10.0,NNW,12.7,20.7,N/A,,Clear,340,2013-01-20 01:53:00
8:53 PM,1.9,-6.0,69,30.45,10.0,NNW,9.2,-,N/A,,Clear,340,2013-01-20 02:53:00
9:53 PM,1.9,-7.1,66,30.44,10.0,North,10.4,-,N/A,,Clear,350,2013-01-20 03:53:00
10:53 PM,1.4,-7.6,66,30.38,10.0,NW,11.5,-,N/A,,Partly Cloudy,320,2013-01-20 04:53:00
11:53 PM,1.0,-7.1,69,30.44,10.0,NNW,9.2,-,N/A,,Clear,330,2013-01-20 05:53:00